Regional Weather Roundup
Issued by NWS Upton, NY

Current Version | Previous Version | Graphics & Text | Print | Product List | Glossary Off
Versions: 1 2 3 4 5 6 7 8 9 10 11 12 13 14 15 16 17 18 19 20 21 22 23 24 25 26 27 28 29 30 31 32 33 34 35 36 37 38 39 40 41 42 43 44 45 46 47 48 49 50

000
ASUS41 KOKX 211805
RWROKX

Regional Weather Roundup
National Weather Service New York NY
100 PM EST WED FEB 21 2018

Note: "FAIR" indicates few or no clouds below 12,000 feet with no
significant weather and/or obstructions to visibility.

NYZ071-072-176-178-NJZ106-104-211900-
New York City Metro Area

CITY           SKY/WX    TMP DP  RH WIND       PRES   REMARKS
Central Park   FAIR      74  59  59 VRB5G22   30.24F
Bronx Bot Gard   N/A     73  57  56 S12       30.21F
Bronx Lehman C   N/A     73  59  60 SW8         N/A
LaGuardia Arpt FAIR      74  59  59 SW12G22   30.22F
Queens College   N/A     72  59  64 SW14        N/A
Kennedy Intl   FAIR      59  52  77 S12       30.25F
Breezy Point     N/A     59 N/A N/A S5          N/A
Brooklyn Coll    N/A     72  59  64 SW13        N/A
Staten Island    N/A    N/A N/A N/A SW15        N/A
Newark/Liberty FAIR      76  59  55 SW18G25   30.22F
Teterboro      FAIR      76  58  53 SW18      30.20F
$$

NYZ177-179-078>081-211900-
Long Island New York

CITY           SKY/WX    TMP DP  RH WIND       PRES   REMARKS
Jones Beach      N/A     48 N/A N/A SW8G15      N/A
Wantagh          N/A     52  50  93 SW8         N/A
Hempstead        N/A     63  55  77 S2        30.27F
Matinecock Pt    N/A     59 N/A N/A SW14        N/A
Farmingdale    FAIR      61  55  81 SW12      30.25F
MacArthur/ISP  PTSUNNY   57  54  89 SW10      30.24F FOG
Shirley        CLOUDY    54  53  97 SW12      30.25F FOG
Mt Sinai Harb    N/A    N/A N/A N/A S9G15       N/A
Westhampton    FOG       51  50  96 SW10      30.26F VSB 3/4
East Hampton   CLOUDY    52  51  97 SW9G20    30.24F FOG
Southold         N/A     55  52  88 SW9         N/A
Montauk          N/A     54  52  93 SW8G17    30.25F
$$

NYZ052-065-067-211900-
Hudson Valley

CITY           SKY/WX    TMP DP  RH WIND       PRES   REMARKS
White Plains   FAIR      73  57  57 S13       30.20F
Larchmont Harb   N/A     63 N/A N/A S21         N/A
Croton On Huds   N/A     68 N/A N/A SE7         N/A
Somers           N/A     72  57  60 SW9         N/A
Brewster         N/A     72  55  56 W3          N/A
Newburgh       MOSUNNY   72  59  64 W14G25    30.20F
Montgomery     FAIR      70  57  63 SW16G23   30.16F
Otisville        N/A     70  55  60 SW8         N/A
Warwick          N/A     72  57  60 W15         N/A
Suffern          N/A     73  55  53 S7          N/A
Poughkeepsie   FAIR      73  54  51 SW14      30.17F
Albany         FAIR      70  54  56 S15G23    30.09F
$$

NJZ001-105-106-008-010-013-015-019>022-104-211900-
New Jersey

CITY           SKY/WX    TMP DP  RH WIND       PRES   REMARKS
Newark/Liberty FAIR      76  59  55 SW18G25   30.22F
Teterboro      FAIR      76  58  53 SW18      30.20F
Caldwell       FAIR      74  58  57 W9        30.21F
Somerville     FAIR      75  60  59 SW10G18   30.22F
Linden         FAIR      74  59  58 W16G22    30.24F
Perth Amboy      N/A     70 N/A N/A SW18G24     N/A
Sussex         FAIR      69  58  67 SW13G24   30.21F
Andover          N/A     72  58  61 SW13G23   30.22F
Trenton        PTSUNNY   74  61  63 SW12G23   30.26F
Millville      FAIR      73  62  68 SW15G28   30.31F
Atlantic City  FAIR      73  62  68 SW17G28   30.30F
Wrightstown    FAIR      76  61  59 SW17G31   30.23F
Toms River     FAIR      77  61  57 SW23G29   30.27F
Belmar         FAIR      77  61  57 SW21G30   30.26F
$$

PAZ047>061-062-071-211900-
Eastern Pennsylvania

CITY           SKY/WX    TMP DP  RH WIND       PRES   REMARKS
Philadelphia   PTSUNNY   74  60  61 SW17G26   30.28F
Allentown      FAIR      75  58  55 W10       30.24F
Scranton       FAIR      74  55  51 SW14      30.20F
$$

CTZ002-004>006-009-010-012-RIZ004-006-007-MAZ004-011-015-211900-
Southern New England

 In CT

CITY           SKY/WX    TMP DP  RH WIND       PRES   REMARKS
Bradley Intl   PTSUNNY   72  57  59 S12       30.15F
Hartford       FAIR      67  57  70 S12       30.18F
Danbury        FAIR      72  57  59 W16G24    30.21F
Wtrbury/Oxford NOT AVBL
Norwalk Harbor   N/A     50 N/A N/A SW13        N/A
Bridgeport     FAIR      57  52  83 SW9       30.21F
Meriden        FAIR      64  56  75 S10       30.19F
New Haven      FOG       54  51  90 S5        30.22F VSB 1
Chester        CLOUDY    57  55  94 SW10      30.22F FOG
Groton         FOG       48  47  96 SW7       30.23F VSB 1/4
Willimantic    FAIR      68  57  68 SW13G20   30.20F

 In RI

CITY           SKY/WX    TMP DP  RH WIND       PRES   REMARKS
Providence     PTSUNNY   63  58  83 SW15      30.20F
Block Island   LGT RAIN  48  48 100 SW20G25   30.25F VSB 1/4
Westerly       CLOUDY    51  51 100 SW5       30.24F FOG

In MA

CITY           SKY/WX    TMP DP  RH WIND       PRES   REMARKS
Boston         PTSUNNY   69  57  65 S20       30.13F
Worcester      FAIR      63  56  78 S12       30.15F
Westfield      FAIR      74  57  55 S16       30.12F
Provincetown   CLOUDY    48  46  93 SW20G26   30.18F FOG
Nantucket      FOG       46  46 100 SW14      30.27F VSB 1/4
$$

ANZ330-335-338-340-345-350-353-355-211900-
Coastal Marine Observations


STATION/POSITION TIME  SKY/WX   TEMP    WIND        PRES    VSBY  WAVE
                                AIR SEA DIR/SP/G                  HT/PER
                 (UTC)          (F)     (DEG/KT/KT) (MB)    (MI)  (FT/S)
NY Harb Entrance NOT AVBL
20 S Fire Island 1750            47 43  210/ 19/ 21 1024.5          4/ 6
15 E Barnegat Li 1730               42                N/A           4/ 6
Hudson Canyon    1750            51 47  210/ 16/ 19 1026.8          4/ 6
Kings Point      1724            60 38  210/  8/  9 1024.4
Execution Rocks  NOT AVBL
Western LI Sound NOT AVBL
Central LI Sound 1730            45     190/ 10/ 10   N/A           0
Robbins Reef     1736            71     240/ 19/ 24 1024.3
$$


>>>>>>>>>>>>>>>>>>>>>>>>>>>> KEY <<<<<<<<<<<<<<<<<<<<<<<<<<<
>                                                          <
>     SKY/WX - Sky Condition/Present Weather               <
>     TMP    - Temperature in Fahrenheit                   <
>     DP     - Dew Point in Fahrenheit                     <
>     RH     - Relative Humidity in Percent                <
>     WIND   - Direction (from) and Speed in MPH           <
>     PRES   - Mean Sea Level Pressure (inches of Hg)      <
>     WCI    - Wind Chill Index                            <
>     VSB    - Visibility in Miles                         <
>     HX     - Heat Index                                  <
>     TC     - Temperature in Celsius                      <
>     VRB    - Varibale Wind Direction                     <
>                                                          <
>>>>>>>>>>>>>>>>>>>>>>>>>>>> KEY <<<<<<<<<<<<<<<<<<<<<<<<<<<



USA.gov is the U.S. government's official web portal to all federal, state and local government web resources and services.